CS7ATL-11 Weather Reports


time (UTC)temp
C
wind
direction
speed
KPH
gust
KPH
rain 1hr
cm
rain 24hr
cm
rain mn
cm
humidity
%
barometer
mb
20260507081502 16 228 3.2 12.9 0.00 0.00 0.00 100 999.6
20260507081000 16 323 4.8 12.9 0.00 0.00 0.00 100 999.7
20260507080500 16 325 3.2 12.9 0.00 0.00 0.00 100 999.6
20260507080004 16 300 1.6 9.7 0.00 0.00 0.00 100 999.7
20260507075459 15 298 0.0 11.3 0.00 0.00 0.00 100 999.7
20260507074503 15 290 0.0 14.5 0.00 0.00 0.00 100 999.7
20260507074002 15 301 0.0 8.0 0.00 0.00 0.00 100 999.8
20260507073459 15 360 3.2 9.7 0.00 0.00 0.00 100 999.6
20260507072502 14 325 1.6 9.7 0.00 0.00 0.00 100 999.6
20260507072003 14 330 3.2 9.7 0.00 0.00 0.00 100 999.6
20260507071459 13 338 1.6 8.0 0.00 0.00 0.00 100 999.5
20260507071001 13 312 0.0 8.0 0.00 0.00 0.00 100 999.5
20260507070500 13 319 1.6 12.9 0.00 0.00 0.00 100 999.5
20260507070004 13 330 0.0 12.9 0.00 0.00 0.00 100 999.5
20260507065503 13 292 6.4 11.3 0.00 0.00 0.00 100 999.5
20260507065002 13 262 0.0 8.0 0.00 0.00 0.00 100 999.4
20260507064459 13 342 0.0 9.7 0.00 0.00 0.00 100 999.4
20260507063959 12 309 8.0 8.0 0.00 0.00 0.00 100 999.3
20260507063459 12 331 3.2 6.4 0.00 0.00 0.00 100 999.3
20260507063000 12 332 0.0 4.8 0.00 0.00 0.00 100 999.2
20260507062500 12 327 0.0 6.4 0.00 0.00 0.00 100 999.3
20260507062000 12 315 0.0 8.0 0.00 0.00 0.00 100 999.2
20260507061500 12 275 0.0 8.0 0.00 0.00 0.00 100 999.3
20260507060959 12 360 1.6 4.8 0.00 0.00 0.00 100 999.1
20260507060501 12 309 0.0 3.2 0.00 0.00 0.00 100 999.3
20260507060003 12 311 0.0 3.2 0.00 0.00 0.00 100 999.1
20260507055502 12 329 1.6 3.2 0.00 0.00 0.00 100 999.1
20260507054959 12 340 3.2 4.8 0.00 0.00 0.00 100 999.1
20260507054459 12 292 0.0 8.0 0.00 0.00 0.00 100 999.1
20260507053500 12 327 0.0 12.9 0.00 0.00 0.00 100 999.0
20260507053001 12 346 6.4 12.9 0.00 0.00 0.00 100 999.2
20260507051959 12 329 4.8 20.9 0.00 0.00 0.00 100 998.9
20260507051500 12 339 4.8 20.9 0.00 0.00 0.00 100 999.0
20260507050459 12 320 9.7 19.3 0.00 0.00 0.00 100 998.9
20260507050004 12 327 4.8 19.3 0.00 0.00 0.00 100 998.9
20260507045500 12 360 9.7 17.7 0.00 0.00 0.00 100 998.9
20260507045000 12 311 3.2 17.7 0.00 0.00 0.00 100 998.8
20260507044500 12 315 3.2 17.7 0.00 0.00 0.00 100 998.8
20260507044000 12 308 11.3 20.9 0.00 0.00 0.00 100 998.7
20260507043500 12 327 3.2 20.9 0.00 0.00 0.00 100 998.8
20260507042959 12 355 1.6 24.1 0.00 0.00 0.00 100 998.7
20260507042500 12 350 9.7 24.1 0.00 0.00 0.00 100 998.7
20260507041500 12 331 9.7 22.5 0.00 0.00 0.00 100 998.7
20260507041000 12 348 8.0 17.7 0.00 0.00 0.00 100 998.8
20260507040500 12 355 0.0 22.5 0.00 0.00 0.00 100 998.8
20260507035459 12 338 8.0 22.5 0.00 0.00 0.00 100 999.0
20260507034459 12 340 8.0 22.5 0.00 0.00 0.00 100 999.1
20260507033959 12 330 8.0 19.3 0.00 0.00 0.00 100 999.1
20260507033459 12 309 11.3 20.9 0.00 0.00 0.00 100 999.1
20260507032959 12 315 0.0 22.5 0.00 0.00 0.00 100 999.2
20260507032000 12 329 4.8 20.9 0.00 0.00 0.00 100 999.3
20260507031459 12 309 12.9 20.9 0.00 0.00 0.00 100 999.2
20260507030500 12 340 6.4 29.0 0.00 0.00 0.00 100 999.3
20260507030003 12 336 12.9 29.0 0.00 0.00 0.00 100 999.4
20260507025459 12 336 14.5 22.5 0.00 0.00 0.00 100 999.2
20260507024959 12 344 6.4 22.5 0.00 0.00 0.00 100 999.3
20260507024500 12 328 9.7 22.5 0.00 0.00 0.00 100 999.1
20260507024000 12 344 8.0 22.5 0.00 0.00 0.00 100 999.3
20260507023459 12 337 12.9 22.5 0.00 0.00 0.00 100 999.2
20260507022959 12 311 12.9 29.0 0.00 0.00 0.00 100 999.4
20260507022459 12 338 16.1 27.4 0.00 0.00 0.00 100 999.3
20260507021959 12 360 8.0 24.1 0.00 0.00 0.00 100 999.4
20260507021459 12 311 4.8 24.1 0.00 0.00 0.00 100 999.4
20260507020959 12 322 12.9 19.3 0.00 0.00 0.00 100 999.4
20260507020459 12 343 6.4 19.3 0.00 0.00 0.00 100 999.5
20260507020002 13 321 3.2 22.5 0.00 0.00 0.00 100 999.4
20260507015459 13 355 14.5 25.7 0.00 0.00 0.00 100 999.6
20260507014959 13 346 8.0 25.7 0.00 0.00 0.00 100 999.5
20260507014500 13 348 4.8 27.4 0.00 0.00 0.00 100 999.6
20260507013959 13 340 4.8 27.4 0.00 0.00 0.00 100 999.7
20260507013500 13 355 14.5 25.7 0.00 0.00 0.00 100 999.6
20260507013003 13 342 6.4 32.2 0.00 0.00 0.00 100 999.6
20260507012459 13 11 17.7 32.2 0.00 0.00 0.00 100 999.7
20260507011502 13 342 6.4 25.7 0.00 0.00 0.00 100 999.7
20260507011000 13 5 22.5 25.7 0.00 0.00 0.00 100 999.7
20260507010459 13 346 8.0 25.7 0.00 0.00 0.00 100 999.8
20260507005000 13 346 9.7 27.4 0.00 0.00 0.00 100 999.9
20260507004459 13 329 16.1 30.6 0.00 0.00 0.00 100 999.7
20260507003959 13 336 6.4 30.6 0.00 0.00 0.00 100 999.7
20260507003500 13 355 16.1 22.5 0.00 0.00 0.00 100 999.8
20260507003002 13 346 3.2 20.9 0.00 0.00 0.00 100 999.8
20260507002502 13 344 8.0 22.5 0.00 0.00 0.00 100 999.9
20260507001959 13 310 6.4 22.5 0.00 0.00 0.00 100 999.8
20260507001500 13 333 19.3 27.4 0.00 0.00 0.00 100 1000.1
20260507000500 13 338 6.4 25.7 0.00 0.00 0.00 100 1000.0
20260507000002 13 355 9.7 27.4 0.00 0.00 0.00 100 1000.2
20260506235503 13 355 6.4 27.4 0.00 0.00 0.00 100 1000.1
20260506235003 13 336 6.4 24.1 0.00 0.00 0.00 100 1000.2
20260506233503 13 346 16.1 29.0 0.00 0.00 0.00 100 1000.1
20260506233004 13 307 8.0 25.7 0.00 0.00 0.00 100 1000.0
20260506232503 13 355 4.8 27.4 0.00 0.00 0.00 100 1000.1
20260506232002 13 333 12.9 30.6 0.00 0.00 0.00 100 1000.2
20260506231502 13 350 8.0 30.6 0.00 0.00 0.00 100 1000.1
20260506231003 13 312 4.8 25.7 0.00 0.00 0.00 100 999.9
20260506230502 13 288 16.1 29.0 0.00 0.00 0.00 100 1000.3
20260506230006 13 12 14.5 29.0 0.00 0.00 0.00 100 1000.0
20260506225502 13 320 12.9 24.1 0.00 0.00 0.00 100 999.8
20260506225002 13 347 14.5 24.1 0.00 0.00 0.00 100 1000.0
20260506224002 13 342 8.0 29.0 0.00 0.00 0.00 100 1000.0
20260506223502 13 327 14.5 22.5 0.00 0.00 0.00 100 1000.0
20260506223002 13 329 6.4 24.1 0.00 0.00 0.00 100 1000.1
20260506222502 13 342 19.3 25.7 0.00 0.00 0.00 100 1000.1
20260506221502 13 17 22.5 27.4 0.00 0.00 0.00 100 1000.2
20260506220502 13 344 12.9 29.0 0.00 0.00 0.00 100 1000.3
20260506220002 13 327 12.9 27.4 0.00 0.00 0.00 100 1000.3
20260506215003 13 300 27.4 27.4 0.00 0.00 0.00 100 1000.3
20260506214502 13 355 22.5 27.4 0.00 0.00 0.00 100 1000.3
20260506214002 13 360 19.3 27.4 0.00 0.00 0.00 100 1000.4
20260506213502 13 336 20.9 27.4 0.00 0.00 0.00 100 1000.3
20260506213002 13 341 6.4 27.4 0.00 0.00 0.00 100 1000.4
20260506212502 13 360 8.0 29.0 0.00 0.00 0.00 100 1000.5
20260506211002 13 9 3.2 25.7 0.00 0.00 0.00 100 1000.4
20260506210502 13 341 14.5 29.0 0.00 0.00 0.00 100 1000.3
20260506210003 13 346 12.9 29.0 0.00 0.00 0.00 100 1000.3
20260506205502 13 360 16.1 24.1 0.00 0.00 0.00 100 1000.3
20260506205002 13 344 9.7 33.8 0.00 0.00 0.00 100 1000.3
20260506204503 13 350 6.4 33.8 0.00 0.00 0.00 100 1000.0
20260506204002 13 337 14.5 27.4 0.00 0.00 0.00 100 1000.1
20260506203502 14 327 8.0 27.4 0.00 0.00 0.00 100 1000.1
20260506203002 14 338 9.7 27.4 0.00 0.00 0.00 100 1000.1
20260506202503 14 5 17.7 25.7 0.00 0.00 0.00 100 1000.1
20260506202002 14 340 4.8 22.5 0.00 0.00 0.00 100 1000.3
20260506201503 14 348 8.0 27.4 0.00 0.00 0.00 100 1000.2
20260506200502 14 311 14.5 25.7 0.00 0.00 0.00 100 1000.4
20260506200003 14 323 4.8 24.1 0.00 0.00 0.00 100 1000.3
20260506195502 14 319 4.8 24.1 0.00 0.00 0.00 100 1000.3
20260506195003 14 341 17.7 24.1 0.00 0.00 0.00 100 1000.2
20260506194502 14 336 16.1 22.5 0.00 0.00 0.00 100 1000.3
20260506194002 15 355 12.9 27.4 0.00 0.00 0.00 100 1000.2
20260506193502 15 340 16.1 27.4 0.00 0.00 0.00 100 1000.1
20260506193002 15 291 12.9 24.1 0.00 0.00 0.00 100 1000.1
20260506192502 15 339 14.5 22.5 0.00 0.00 0.00 100 999.9
20260506192003 15 12 16.1 24.1 0.00 0.00 0.00 100 1000.1
20260506191503 15 347 16.1 24.1 0.00 0.00 0.00 100 999.9
20260506191002 15 333 4.8 22.5 0.00 0.00 0.00 100 1000.0
20260506190502 15 308 16.1 20.9 0.00 0.00 0.00 100 1000.0
20260506190003 15 306 11.3 24.1 0.00 0.00 0.00 100 1000.0
20260506185503 15 331 9.7 24.1 0.00 0.00 0.00 100 1000.0
20260506185000 16 5 9.7 22.5 0.00 0.00 0.00 100 1000.0
20260506184500 16 327 6.4 20.9 0.00 0.00 0.00 100 1000.1
20260506184002 16 326 16.1 22.5 0.00 0.00 0.00 100 1000.0
20260506183500 16 329 6.4 22.5 0.00 0.00 0.00 100 1000.2
20260506183000 16 319 8.0 30.6 0.00 0.00 0.00 100 1000.0
20260506182000 16 320 12.9 25.7 0.00 0.00 0.00 100 999.9
20260506181500 16 341 16.1 25.7 0.00 0.00 0.00 100 1000.0
20260506181002 16 355 16.1 24.1 0.00 0.00 0.00 100 1000.0
20260506180500 16 348 12.9 22.5 0.00 0.00 0.00 100 1000.0
20260506180005 16 317 4.8 25.7 0.00 0.00 0.00 100 1000.1
20260506175502 16 315 6.4 27.4 0.00 0.00 0.00 100 1000.1
20260506174503 17 14 12.9 20.9 0.00 0.00 0.00 100 1000.1
20260506174002 17 304 12.9 25.7 0.00 0.00 0.00 100 1000.3
20260506173502 17 333 20.9 27.4 0.00 0.00 0.00 100 1000.3
20260506173002 17 314 6.4 22.5 0.00 0.00 0.00 100 1000.5
20260506172502 17 294 16.1 24.1 0.00 0.00 0.00 100 1000.3
20260506172002 17 318 17.7 24.1 0.00 0.00 0.00 100 1000.4
20260506171502 17 346 6.4 22.5 0.00 0.00 0.00 100 1000.4
20260506170503 18 319 6.4 24.1 0.00 0.00 0.00 100 1000.4
20260506170003 17 316 19.3 29.0 0.00 0.00 0.00 100 1000.3
20260506165503 17 12 4.8 27.4 0.00 0.00 0.00 100 1000.5
20260506165006 18 311 24.1 25.7 0.00 0.00 0.00 100 1000.5
20260506164502 18 336 17.7 30.6 0.00 0.00 0.00 100 1000.4
20260506164002 18 325 9.7 30.6 0.00 0.00 0.00 100 1000.5
20260506163503 18 355 1.6 30.6 0.00 0.00 0.00 100 1000.6
20260506163003 18 344 3.2 32.2 0.00 0.00 0.00 100 1000.7
20260506162502 18 284 14.5 32.2 0.00 0.00 0.00 100 1000.4
20260506162003 18 11 12.9 30.6 0.00 0.00 0.00 100 1000.5
20260506161503 18 342 12.9 27.4 0.00 0.00 0.00 100 1000.5
20260506161002 18 327 14.5 27.4 0.00 0.00 0.00 100 1000.6
20260506160502 18 308 11.3 32.2 0.00 0.00 0.00 100 1000.6
20260506160003 18 310 12.9 32.2 0.00 0.00 0.00 100 1000.5
20260506155503 18 324 20.9 33.8 0.00 0.00 0.00 100 1000.5
20260506155002 18 9 25.7 33.8 0.00 0.00 0.00 100 1000.5
20260506154502 18 322 17.7 27.4 0.00 0.00 0.00 100 1000.5
20260506154002 19 335 6.4 24.1 0.00 0.00 0.00 100 1000.6
20260506153003 18 325 17.7 35.4 0.00 0.00 0.00 100 1000.6
20260506152503 19 323 25.7 29.0 0.00 0.00 0.00 100 1000.7
20260506152003 19 314 16.1 27.4 0.00 0.00 0.00 100 1000.7
20260506151003 20 334 8.0 22.5 0.00 0.00 0.00 100 1000.8
20260506150502 20 335 9.7 27.4 0.00 0.00 0.00 100 1000.9
20260506145502 19 348 19.3 29.0 0.00 0.00 0.00 100 1001.1
20260506145002 18 314 16.1 29.0 0.00 0.00 0.00 100 1001.1
20260506144503 19 319 4.8 27.4 0.00 0.00 0.00 100 1001.1
20260506143503 19 327 8.0 25.7 0.00 0.00 0.00 100 1001.4
20260506143003 19 328 17.7 24.1 0.00 0.00 0.00 100 1001.6
20260506142502 20 13 19.3 25.7 0.00 0.00 0.00 100 1001.5
20260506142004 19 12 8.0 25.7 0.00 0.00 0.00 100 1001.6
20260506141502 19 342 8.0 25.7 0.00 0.00 0.00 100 1001.5
20260506141002 19 5 8.0 25.7 0.00 0.00 0.00 100 1001.6
20260506140503 19 309 4.8 24.1 0.00 0.00 0.00 100 1001.5
20260506140002 19 355 8.0 22.5 0.00 0.00 0.00 100 1001.7
20260506135503 19 300 12.9 24.1 0.00 0.00 0.00 100 1001.7
20260506134502 19 268 9.7 25.7 0.00 0.00 0.00 100 1001.7
20260506134002 19 259 11.3 25.7 0.00 0.00 0.00 100 1001.7
20260506133002 19 344 17.7 20.9 0.00 0.00 0.00 100 1001.8
20260506132502 19 9 8.0 24.1 0.00 0.00 0.00 100 1002.0
20260506132002 19 346 12.9 24.1 0.00 0.00 0.00 100 1001.9
20260506131503 19 279 14.5 20.9 0.00 0.00 0.00 100 1001.9
20260506131014 19 325 9.7 20.9 0.00 0.00 0.00 100 1001.9
20260506130503 19 342 4.8 20.9 0.00 0.00 0.00 100 1001.9
20260506130003 19 302 6.4 27.4 0.00 0.00 0.00 100 1001.9
20260506125500 18 327 14.5 27.4 0.00 0.00 0.00 100 1002.2
20260506125002 18 355 9.7 22.5 0.00 0.00 0.00 100 1002.2
20260506124500 18 325 16.1 25.7 0.00 0.00 0.00 100 1002.4
20260506123459 18 346 19.3 25.7 0.00 0.00 0.00 100 1002.4
20260506123000 18 347 17.7 19.3 0.00 0.00 0.00 100 1002.6
20260506122459 17 302 8.0 20.9 0.00 0.00 0.00 100 1002.5
20260506121500 17 290 4.8 29.0 0.00 0.00 0.00 100 1002.8
20260506121000 17 333 16.1 29.0 0.00 0.00 0.00 100 1002.9
20260506120000 17 345 12.9 25.7 0.00 0.00 0.00 100 1003.0
20260506115502 17 325 14.5 25.7 0.00 0.00 0.00 100 1002.9
20260506115002 17 347 12.9 24.1 0.00 0.00 0.00 100 1003.0
20260506114503 17 346 3.2 29.0 0.00 0.00 0.00 100 1003.2
20260506114003 17 329 16.1 29.0 0.00 0.00 0.00 100 1003.1
20260506113501 17 336 14.5 24.1 0.00 0.00 0.00 100 1003.1
20260506113004 17 319 16.1 24.1 0.00 0.00 0.00 100 1003.1
20260506112500 17 360 14.5 29.0 0.00 0.00 0.00 100 1003.1
20260506112000 17 336 9.7 29.0 0.00 0.00 0.00 100 1003.0
20260506111500 16 17 14.5 25.7 0.00 0.00 0.00 100 1003.0
20260506111000 16 351 8.0 27.4 0.00 0.00 0.00 100 1003.2
20260506110503 16 340 12.9 27.4 0.00 0.00 0.00 100 1003.3
20260506110002 17 317 8.0 25.7 0.00 0.00 0.00 100 1003.3
20260506105002 17 321 4.8 29.0 0.00 0.00 0.00 100 1003.2
20260506104003 17 346 3.2 22.5 0.00 0.00 0.00 100 1003.2
20260506103502 16 340 8.0 22.5 0.00 0.00 0.00 100 1003.2
20260506103003 16 311 9.7 27.4 0.00 0.00 0.00 100 1003.1
20260506102502 16 338 12.9 27.4 0.00 0.00 0.00 100 1003.1
20260506102002 16 336 4.8 24.1 0.00 0.00 0.00 100 1003.1
20260506101502 15 327 8.0 24.1 0.00 0.00 0.00 100 1003.4
20260506101002 15 347 9.7 19.3 0.00 0.00 0.00 100 1003.3
20260506100003 15 346 0.0 19.3 0.00 0.00 0.00 100 1003.3
20260506095500 15 343 16.1 27.4 0.00 0.00 0.00 100 1003.4
20260506095000 15 350 6.4 27.4 0.00 0.00 0.00 100 1003.3
20260506094500 15 360 9.7 19.3 0.00 0.00 0.00 100 1003.2
20260506093959 15 325 9.7 19.3 0.00 0.00 0.00 100 1003.3
20260506093459 15 301 3.2 17.7 0.00 0.00 0.00 100 1003.3
20260506093000 15 306 12.9 17.7 0.00 0.00 0.00 100 1003.2
20260506092459 15 313 17.7 17.7 0.00 0.00 0.00 100 1003.3
20260506091959 16 343 3.2 17.7 0.00 0.00 0.00 100 1003.4
20260506091500 16 327 4.8 20.9 0.00 0.00 0.00 100 1003.3
20260506091002 16 300 6.4 20.9 0.00 0.00 0.00 100 1003.2
20260506090459 17 317 4.8 16.1 0.00 0.00 0.00 100 1003.1
20260506090000 17 309 1.6 16.1 0.00 0.00 0.00 100 1003.0
20260506085500 17 342 8.0 17.7 0.00 0.00 0.00 100 1003.0
20260506084500 17 348 3.2 14.5 0.00 0.00 0.00 100 1003.0
20260506084003 17 349 0.0 17.7 0.00 0.00 0.00 100 1003.0
20260506083501 16 348 12.9 17.7 0.00 0.00 0.00 100 1003.0
20260506083000 16 336 6.4 16.1 0.00 0.00 0.00 100 1003.0
20260506082502 16 314 6.4 17.7 0.00 0.00 0.00 100 1003.1
20260506082000 16 355 16.1 17.7 0.00 0.00 0.00 100 1003.2